When you browse on this site, cookies collect data to enhance your experience and personalize the content and advertising you see.
Visit our Privacy Policy to learn more. By continuing to use the site, you agree to this use of cookies and data.
  • In Hungary
  • List of Countries
  • For 7 days
  • Water Temperature
  • Satellite Maps
  • Weather Map
  • News
  • Weather Widgets
  • user-avatar
    Login

    Hourly Weather Kartuzy

    Today, 20 March, Wednesday

    Time Temperature Precipitation Wind Pressure Humidity
    00:00 -1°C° 0 mm 3 mps 750 mmHg 81%
    01:00 -1°C° 0 mm 3 mps 750 mmHg 83%
    02:00 -1°C° 0 mm 3 mps 750 mmHg 83%
    03:00 -1°C° 0 mm 3 mps 750 mmHg 83%
    04:00 -1°C° 0 mm 3 mps 750 mmHg 83%
    05:00 -1°C° 0 mm 3 mps 750 mmHg 80%
    06:00 -1°C° 0 mm 3 mps 751 mmHg 77%
    07:00 0°C° 0 mm 3 mps 751 mmHg 74%
    08:00 0°C° 0 mm 4 mps 751 mmHg 66%
    09:00 +3°C° 0 mm 4 mps 752 mmHg 57%
    10:00 +5°C° 0 mm 5 mps 752 mmHg 49%
    11:00 +6°C° 0 mm 5 mps 752 mmHg 46%
    12:00 +6°C° 0 mm 5 mps 752 mmHg 44%
    13:00 +7°C° 0 mm 6 mps 752 mmHg 42%
    14:00 +7°C° 0 mm 6 mps 752 mmHg 44%
    15:00 +8°C° 0 mm 6 mps 751 mmHg 47%
    16:00 +8°C° 0 mm 6 mps 751 mmHg 49%
    17:00 +7°C° 0 mm 6 mps 751 mmHg 57%
    18:00 +5°C° 0 mm 6 mps 751 mmHg 65%
    19:00 +6°C° 0 mm 5 mps 751 mmHg 73%
    20:00 +6°C° 0 mm 5 mps 751 mmHg 78%
    21:00 +5°C° 0 mm 5 mps 751 mmHg 83%
    22:00 +5°C° 0 mm 5 mps 751 mmHg 88%
    23:00 +5°C° 0 mm 5 mps 751 mmHg 90%

    Tomorrow, 21 March, Thursday

    Time Temperature Precipitation Wind Pressure Humidity
    00:00 +5°C° 0 mm 4 mps 751 mmHg 91%
    01:00 +4°C° 0 mm 4 mps 752 mmHg 93%
    02:00 +4°C° 0 mm 4 mps 752 mmHg 92%
    03:00 +4°C° 0 mm 4 mps 752 mmHg 92%
    04:00 +4°C° 0 mm 4 mps 752 mmHg 91%
    05:00 +4°C° 0 mm 4 mps 752 mmHg 91%
    06:00 +4°C° 0 mm 4 mps 752 mmHg 91%
    07:00 +4°C° 0 mm 4 mps 752 mmHg 92%
    08:00 +5°C° 0 mm 4 mps 752 mmHg 85%
    09:00 +6°C° 0 mm 5 mps 753 mmHg 78%
    10:00 +8°C° 0 mm 5 mps 753 mmHg 71%
    11:00 +9°C° 0 mm 5 mps 753 mmHg 69%
    12:00 +10°C° 0 mm 5 mps 753 mmHg 66%
    13:00 +10°C° 0 mm 5 mps 753 mmHg 64%
    14:00 +12°C° 0 mm 5 mps 753 mmHg 66%
    15:00 +11°C° 0 mm 6 mps 752 mmHg 67%
    16:00 +11°C° 0 mm 6 mps 752 mmHg 68%
    17:00 +10°C° 0 mm 5 mps 752 mmHg 72%
    18:00 +9°C° 0 mm 5 mps 752 mmHg 76%
    19:00 +8°C° 0 mm 5 mps 752 mmHg 80%
    20:00 +8°C° 0 mm 5 mps 752 mmHg 83%
    21:00 +7°C° 0 mm 5 mps 751 mmHg 86%
    22:00 +7°C° 0 mm 5 mps 751 mmHg 89%
    23:00 +7°C° 0 mm 5 mps 751 mmHg 90%

    Day after tomorrow, 22 March, Friday

    Time Temperature Precipitation Wind Pressure Humidity
    00:00 +7°C° 0 mm 5 mps 751 mmHg 90%
    01:00 +8°C° 0 mm 5 mps 751 mmHg 90%
    02:00 +8°C° 0 mm 5 mps 751 mmHg 91%
    03:00 +7°C° 0 mm 5 mps 751 mmHg 91%
    04:00 +7°C° 0 mm 5 mps 751 mmHg 92%
    05:00 +7°C° 0 mm 5 mps 751 mmHg 91%
    06:00 +7°C° 0 mm 5 mps 751 mmHg 91%
    07:00 +7°C° 0 mm 5 mps 751 mmHg 90%
    08:00 +7°C° 0 mm 5 mps 751 mmHg 89%
    09:00 +8°C° 0 mm 5 mps 751 mmHg 87%
    10:00 +8°C° 0 mm 5 mps 751 mmHg 86%
    11:00 +8°C° 0 mm 5 mps 751 mmHg 84%
    12:00 +9°C° 0 mm 5 mps 751 mmHg 81%
    13:00 +9°C° 0 mm 5 mps 751 mmHg 79%
    14:00 +10°C° 0 mm 5 mps 751 mmHg 78%
    15:00 +10°C° 0 mm 5 mps 750 mmHg 77%
    16:00 +11°C° 0 mm 4 mps 750 mmHg 76%
    17:00 +11°C° 0 mm 3 mps 750 mmHg 80%
    18:00 +10°C° 0 mm 3 mps 750 mmHg 84%
    19:00 +9°C° 0 mm 2 mps 749 mmHg 88%
    20:00 +9°C° 0 mm 2 mps 749 mmHg 89%
    21:00 +8°C° 0 mm 3 mps 749 mmHg 90%
    22:00 +8°C° 0 mm 3 mps 749 mmHg 91%
    23:00 +8°C° 0 mm 3 mps 748 mmHg 91%

    23 March, Saturday

    Time Temperature Precipitation Wind Pressure Humidity
    00:00 +8°C° 0 mm 3 mps 748 mmHg 91%
    01:00 +7°C° 0 mm 4 mps 748 mmHg 91%
    02:00 +7°C° 0 mm 4 mps 747 mmHg 91%
    03:00 +7°C° 0 mm 4 mps 747 mmHg 90%
    04:00 +7°C° 0 mm 4 mps 747 mmHg 90%
    05:00 +7°C° 0 mm 4 mps 747 mmHg 90%
    06:00 +7°C° 0 mm 4 mps 747 mmHg 89%
    07:00 +7°C° 0 mm 5 mps 747 mmHg 89%
    08:00 +9°C° 0 mm 5 mps 747 mmHg 82%
    09:00 +10°C° 0 mm 6 mps 747 mmHg 75%
    10:00 +13°C° 0 mm 6 mps 747 mmHg 68%
    11:00 +10°C° 0 mm 6 mps 747 mmHg 72%
    12:00 +9°C° 0 mm 6 mps 747 mmHg 77%
    13:00 +8°C° 0 mm 6 mps 747 mmHg 81%
    14:00 +8°C° 0 mm 6 mps 748 mmHg 72%
    15:00 +8°C° 0 mm 6 mps 748 mmHg 62%
    16:00 +8°C° 0 mm 6 mps 748 mmHg 53%
    17:00 +7°C° 0 mm 6 mps 748 mmHg 55%
    18:00 +6°C° 0 mm 5 mps 749 mmHg 57%
    19:00 +5°C° 0 mm 5 mps 749 mmHg 58%
    20:00 +3°C° 0 mm 5 mps 749 mmHg 58%
    21:00 +3°C° 0 mm 5 mps 749 mmHg 58%
    22:00 +3°C° 0 mm 5 mps 750 mmHg 57%
    23:00 +3°C° 0 mm 4 mps 750 mmHg 60%

    24 March, Sunday

    Time Temperature Precipitation Wind Pressure Humidity
    00:00 +3°C° 0 mm 4 mps 750 mmHg 63%
    01:00 +2°C° 0 mm 3 mps 750 mmHg 66%
    02:00 +2°C° 0 mm 3 mps 750 mmHg 69%
    03:00 +2°C° 0 mm 3 mps 749 mmHg 72%
    04:00 +1°C° 0 mm 3 mps 749 mmHg 75%
    05:00 +1°C° 0 mm 3 mps 749 mmHg 76%
    06:00 +1°C° 0 mm 3 mps 749 mmHg 77%
    07:00 +1°C° 0 mm 3 mps 749 mmHg 77%
    08:00 +2°C° 0 mm 3 mps 749 mmHg 69%
    09:00 +3°C° 0 mm 4 mps 749 mmHg 61%
    10:00 +4°C° 0 mm 4 mps 750 mmHg 54%
    11:00 +5°C° 0 mm 4 mps 749 mmHg 50%
    12:00 +6°C° 0 mm 5 mps 749 mmHg 46%
    13:00 +7°C° 0 mm 5 mps 749 mmHg 42%
    14:00 +6°C° 0 mm 5 mps 748 mmHg 43%
    15:00 +5°C° 0 mm 6 mps 747 mmHg 44%
    16:00 +5°C° 0 mm 6 mps 747 mmHg 45%
    17:00 +5°C° 0 mm 5 mps 746 mmHg 50%
    18:00 +3°C° 0 mm 5 mps 745 mmHg 55%
    19:00 +3°C° 0 mm 4 mps 745 mmHg 61%
    20:00 +1°C° 0 mm 5 mps 744 mmHg 62%
    21:00 +1°C° 0 mm 5 mps 743 mmHg 64%
    22:00 +1°C° 0 mm 6 mps 743 mmHg 65%
    23:00 +1°C° 0 mm 6 mps 741 mmHg 67%

    25 March, Monday

    Time Temperature Precipitation Wind Pressure Humidity
    00:00 0°C° 0 mm 7 mps 740 mmHg 68%
    01:00 0°C° 0 mm 7 mps 739 mmHg 69%
    02:00 0°C° 0.2 mm 8 mps 738 mmHg 71%
    03:00 0°C° 0.2 mm 9 mps 736 mmHg 73%
    04:00 +1°C° 0.2 mm 9 mps 735 mmHg 75%
    05:00 0°C° 0.8 mm 10 mps 735 mmHg 71%
    06:00 0°C° 0.8 mm 10 mps 734 mmHg 66%
    07:00 -2°C° 0.8 mm 11 mps 734 mmHg 62%
    08:00 -1°C° 0 mm 11 mps 734 mmHg 55%
    09:00 -1°C° 0 mm 11 mps 734 mmHg 49%
    10:00 -1°C° 0 mm 11 mps 735 mmHg 43%
    11:00 +1°C° 0 mm 10 mps 735 mmHg 43%
    12:00 +1°C° 0 mm 10 mps 734 mmHg 43%
    13:00 +1°C° 0 mm 10 mps 734 mmHg 43%
    14:00 0°C° 0.2 mm 10 mps 734 mmHg 49%
    15:00 0°C° 0.2 mm 10 mps 733 mmHg 55%
    16:00 -1°C° 0.2 mm 9 mps 732 mmHg 62%
    17:00 -1°C° 0.1 mm 8 mps 732 mmHg 63%
    18:00 -1°C° 0.1 mm 7 mps 731 mmHg 65%
    19:00 -1°C° 0.1 mm 6 mps 730 mmHg 66%
    20:00 -1°C° 0.1 mm 6 mps 730 mmHg 67%
    21:00 -2°C° 0.1 mm 6 mps 730 mmHg 68%
    22:00 -2°C° 0.1 mm 6 mps 730 mmHg 68%
    23:00 -1°C° 0 mm 5 mps 731 mmHg 70%
    Show more